Date,TemperatureHighF,TemperatureAvgF,TemperatureLowF,DewpointHighF,DewpointAvgF,DewpointLowF,HumidityHigh,HumidityAvg,HumidityLow,PressureMaxIn,PressureMinIn,WindSpeedMaxMPH,WindSpeedAvgMPH,GustSpeedMaxMPH,PrecipitationSumIn
2013-9-1,89,74,68,73,66,63,94,80,46,29.88,29.75,13,2,17,0.29
2013-9-2,90,77,67,71,66,55,94,72,34,29.87,29.77,10,1,11,0.02
2013-9-3,75,71,69,66,64,63,84,78,72,29.83,29.79,2,0,2,0.00
2013-9-4,86,75,63,63,58,52,81,58,36,30.07,29.95,6,1,6,0.00
2013-9-5,71,70,69,64,63,63,82,79,76,30.06,30.05,0,0,0,0.00
2013-9-6,71,71,70,58,57,56,64,64,63,30.09,30.08,1,0,2,0.00
2013-9-7,84,72,62,61,56,51,80,60,37,30.10,29.95,10,1,11,0.00
2013-9-8,87,75,64,63,58,41,88,61,24,29.96,29.89,8,1,11,0.05
2013-9-9,87,77,67,64,60,52,85,61,33,30.10,29.96,10,2,11,0.00
2013-9-10,89,77,66,66,60,50,87,62,29,30.20,30.10,8,0,8,0.00
2013-9-11,89,77,67,67,63,57,84,66,36,30.17,30.05,8,1,8,0.00
2013-9-12,90,77,68,69,63,52,89,68,31,30.05,29.82,9,1,11,0.00
2013-9-13,74,73,71,60,58,56,65,60,55,29.81,29.77,3,0,4,0.00
2013-9-15,78,67,56,57,53,49,80,62,41,30.18,30.07,5,1,5,0.00
2013-9-16,85,72,61,61,55,47,86,59,28,30.13,30.02,9,2,9,0.00
2013-9-17,71,67,61,53,48,44,68,52,37,30.26,30.14,15,5,15,0.00
2013-9-18,71,65,58,54,48,46,67,56,40,30.26,30.11,7,2,7,0.00
2013-9-19,80,70,62,60,56,52,77,63,42,30.14,30.04,4,1,4,0.00
2013-9-20,87,74,63,64,59,52,87,64,32,30.04,29.88,7,1,7,0.00
2013-9-21,73,69,65,67,64,62,91,86,77,29.90,29.68,11,3,15,1.39
2013-9-22,78,71,57,61,45,32,91,45,22,29.88,29.70,11,2,13,0.02
2013-9-23,76,65,56,50,46,41,78,55,32,30.03,29.88,12,2,12,0.00
2013-9-24,79,70,60,56,50,43,82,54,31,30.04,29.88,8,1,8,0.00
2013-9-25,68,64,60,61,57,54,86,79,64,29.90,29.82,6,0,7,0.26
2013-9-28,72,64,58,50,47,44,72,56,36,30.21,30.11,10,4,10,0.00
2013-9-29,73,63,56,51,48,45,70,59,39,30.14,29.99,9,2,9,0.00
2013-9-30,78,67,57,55,49,39,79,56,26,30.05,29.95,7,1,7,0.00